• In Hungary
  • List of Countries
  • For 7 days
  • Water Temperature
  • Satellite Maps
  • Weather Map
  • News
  • Weather Widgets
  • user-avatar
    Login

    Hourly Weather Denia

    Today, 21 January, Sunday

    Time Temperature Precipitation Wind Pressure Humidity
    00:00 +12°C° 0 mm 9 mps 761 mmHg 60%
    01:00 +12°C° 0 mm 9 mps 761 mmHg 61%
    02:00 +12°C° 0 mm 9 mps 761 mmHg 62%
    03:00 +11°C° 0 mm 9 mps 761 mmHg 63%
    04:00 +11°C° 0 mm 9 mps 762 mmHg 64%
    05:00 +11°C° 0 mm 9 mps 762 mmHg 65%
    06:00 +11°C° 0 mm 10 mps 761 mmHg 67%
    07:00 +12°C° 0 mm 9 mps 762 mmHg 65%
    08:00 +13°C° 0 mm 8 mps 762 mmHg 62%
    09:00 +15°C° 0 mm 7 mps 762 mmHg 60%
    10:00 +17°C° 0 mm 6 mps 762 mmHg 54%
    11:00 +20°C° 0 mm 5 mps 762 mmHg 49%
    12:00 +22°C° 0 mm 4 mps 762 mmHg 43%
    13:00 +23°C° 0 mm 4 mps 762 mmHg 42%
    14:00 +25°C° 0 mm 4 mps 762 mmHg 40%
    15:00 +25°C° 0 mm 3 mps 762 mmHg 39%
    16:00 +22°C° 0 mm 4 mps 762 mmHg 46%
    17:00 +20°C° 0 mm 4 mps 762 mmHg 53%
    18:00 +18°C° 0 mm 4 mps 763 mmHg 60%
    19:00 +17°C° 0 mm 4 mps 763 mmHg 64%
    20:00 +17°C° 0 mm 4 mps 763 mmHg 69%
    21:00 +15°C° 0 mm 4 mps 764 mmHg 73%
    22:00 +14°C° 0 mm 4 mps 764 mmHg 76%
    23:00 +14°C° 0 mm 4 mps 764 mmHg 80%

    Tomorrow, 22 January, Monday

    Time Temperature Precipitation Wind Pressure Humidity
    00:00 +13°C° 0 mm 4 mps 764 mmHg 83%
    01:00 +13°C° 0 mm 4 mps 764 mmHg 84%
    02:00 +12°C° 0 mm 4 mps 764 mmHg 85%
    03:00 +12°C° 0 mm 4 mps 764 mmHg 85%
    04:00 +12°C° 0 mm 3 mps 764 mmHg 84%
    05:00 +12°C° 0 mm 3 mps 764 mmHg 84%
    06:00 +12°C° 0 mm 3 mps 764 mmHg 83%
    07:00 +13°C° 0 mm 3 mps 764 mmHg 77%
    08:00 +14°C° 0 mm 3 mps 764 mmHg 72%
    09:00 +16°C° 0 mm 2 mps 764 mmHg 67%
    10:00 +18°C° 0 mm 2 mps 764 mmHg 60%
    11:00 +20°C° 0 mm 2 mps 764 mmHg 52%
    12:00 +23°C° 0 mm 2 mps 763 mmHg 44%
    13:00 +23°C° 0 mm 2 mps 763 mmHg 43%
    14:00 +22°C° 0 mm 3 mps 763 mmHg 42%
    15:00 +24°C° 0 mm 3 mps 762 mmHg 42%
    16:00 +21°C° 0 mm 3 mps 762 mmHg 48%
    17:00 +19°C° 0 mm 3 mps 762 mmHg 54%
    18:00 +18°C° 0 mm 4 mps 763 mmHg 60%
    19:00 +17°C° 0 mm 3 mps 763 mmHg 63%
    20:00 +16°C° 0 mm 3 mps 763 mmHg 66%
    21:00 +15°C° 0 mm 2 mps 764 mmHg 70%
    22:00 +15°C° 0 mm 2 mps 764 mmHg 72%
    23:00 +13°C° 0 mm 3 mps 764 mmHg 74%

    Day after tomorrow, 23 January, Tuesday

    Time Temperature Precipitation Wind Pressure Humidity
    00:00 +13°C° 0 mm 3 mps 764 mmHg 76%
    01:00 +12°C° 0 mm 3 mps 764 mmHg 76%
    02:00 +12°C° 0 mm 4 mps 764 mmHg 77%
    03:00 +11°C° 0 mm 4 mps 764 mmHg 78%
    04:00 +11°C° 0 mm 3 mps 764 mmHg 77%
    05:00 +11°C° 0 mm 3 mps 764 mmHg 77%
    06:00 +11°C° 0 mm 3 mps 764 mmHg 77%
    07:00 +13°C° 0 mm 2 mps 764 mmHg 71%
    08:00 +15°C° 0 mm 2 mps 765 mmHg 65%
    09:00 +16°C° 0 mm 2 mps 765 mmHg 59%
    10:00 +19°C° 0 mm 1 mps 765 mmHg 52%
    11:00 +21°C° 0 mm 1 mps 765 mmHg 45%
    12:00 +23°C° 0 mm 1 mps 765 mmHg 39%
    13:00 +23°C° 0 mm 1 mps 765 mmHg 37%
    14:00 +24°C° 0 mm 2 mps 764 mmHg 34%
    15:00 +24°C° 0 mm 3 mps 764 mmHg 32%
    16:00 +21°C° 0 mm 3 mps 764 mmHg 41%
    17:00 +18°C° 0 mm 2 mps 765 mmHg 49%
    18:00 +16°C° 0 mm 2 mps 765 mmHg 57%
    19:00 +15°C° 0 mm 2 mps 765 mmHg 63%
    20:00 +14°C° 0 mm 2 mps 765 mmHg 68%
    21:00 +14°C° 0 mm 1 mps 766 mmHg 74%
    22:00 +13°C° 0 mm 1 mps 766 mmHg 73%
    23:00 +13°C° 0 mm 1 mps 766 mmHg 72%

    24 January, Wednesday

    Time Temperature Precipitation Wind Pressure Humidity
    00:00 +13°C° 0 mm 1 mps 766 mmHg 72%
    01:00 +13°C° 0 mm 1 mps 765 mmHg 71%
    02:00 +13°C° 0 mm 1 mps 765 mmHg 71%
    03:00 +12°C° 0 mm 1 mps 765 mmHg 71%
    04:00 +12°C° 0 mm 1 mps 765 mmHg 71%
    05:00 +12°C° 0 mm 1 mps 765 mmHg 71%
    06:00 +11°C° 0 mm 1 mps 765 mmHg 71%
    07:00 +13°C° 0 mm 1 mps 765 mmHg 65%
    08:00 +15°C° 0 mm 1 mps 765 mmHg 58%
    09:00 +18°C° 0 mm 1 mps 765 mmHg 52%
    10:00 +19°C° 0 mm 2 mps 765 mmHg 47%
    11:00 +20°C° 0 mm 2 mps 765 mmHg 43%
    12:00 +23°C° 0 mm 2 mps 765 mmHg 38%
    13:00 +22°C° 0 mm 3 mps 765 mmHg 38%
    14:00 +22°C° 0 mm 4 mps 764 mmHg 37%
    15:00 +23°C° 0 mm 4 mps 763 mmHg 37%
    16:00 +21°C° 0 mm 4 mps 763 mmHg 44%
    17:00 +19°C° 0 mm 4 mps 763 mmHg 50%
    18:00 +15°C° 0 mm 4 mps 763 mmHg 57%
    19:00 +15°C° 0 mm 4 mps 764 mmHg 60%
    20:00 +15°C° 0 mm 4 mps 764 mmHg 62%
    21:00 +14°C° 0 mm 4 mps 764 mmHg 65%
    22:00 +14°C° 0 mm 4 mps 764 mmHg 67%
    23:00 +14°C° 0 mm 4 mps 764 mmHg 70%

    25 January, Thursday

    Time Temperature Precipitation Wind Pressure Humidity
    00:00 +13°C° 0 mm 4 mps 763 mmHg 73%
    01:00 +13°C° 0 mm 3 mps 763 mmHg 73%
    02:00 +13°C° 0 mm 3 mps 763 mmHg 73%
    03:00 +12°C° 0 mm 3 mps 762 mmHg 72%
    04:00 +12°C° 0 mm 3 mps 762 mmHg 71%
    05:00 +12°C° 0 mm 3 mps 762 mmHg 69%
    06:00 +12°C° 0 mm 3 mps 762 mmHg 68%
    07:00 +13°C° 0 mm 3 mps 762 mmHg 65%
    08:00 +13°C° 0 mm 4 mps 762 mmHg 62%
    09:00 +14°C° 0 mm 4 mps 762 mmHg 60%
    10:00 +17°C° 0 mm 4 mps 762 mmHg 55%
    11:00 +18°C° 0 mm 4 mps 762 mmHg 50%
    12:00 +20°C° 0 mm 4 mps 761 mmHg 45%
    13:00 +20°C° 0 mm 5 mps 760 mmHg 41%
    14:00 +20°C° 0 mm 5 mps 760 mmHg 38%
    15:00 +20°C° 0 mm 5 mps 759 mmHg 35%
    16:00 +19°C° 0 mm 6 mps 759 mmHg 46%
    17:00 +17°C° 0 mm 6 mps 759 mmHg 58%
    18:00 +15°C° 0 mm 7 mps 759 mmHg 69%
    19:00 +15°C° 0 mm 7 mps 759 mmHg 73%
    20:00 +14°C° 0 mm 7 mps 760 mmHg 76%
    21:00 +14°C° 0 mm 7 mps 760 mmHg 80%
    22:00 +12°C° 0 mm 7 mps 760 mmHg 73%
    23:00 +11°C° 0 mm 8 mps 760 mmHg 66%

    26 January, Friday

    Time Temperature Precipitation Wind Pressure Humidity
    00:00 +10°C° 0 mm 9 mps 760 mmHg 60%
    01:00 +8°C° 0 mm 9 mps 761 mmHg 60%
    02:00 +7°C° 0 mm 9 mps 761 mmHg 61%
    03:00 +6°C° 0 mm 9 mps 761 mmHg 62%
    04:00 +6°C° 0 mm 9 mps 761 mmHg 62%
    05:00 +6°C° 0 mm 9 mps 762 mmHg 63%
    06:00 +5°C° 0 mm 9 mps 762 mmHg 63%
    07:00 +6°C° 0 mm 9 mps 762 mmHg 61%
    08:00 +6°C° 0 mm 9 mps 763 mmHg 60%
    09:00 +6°C° 0 mm 9 mps 763 mmHg 59%
    10:00 +9°C° 0 mm 8 mps 763 mmHg 53%
    11:00 +10°C° 0 mm 7 mps 763 mmHg 46%
    12:00 +12°C° 0 mm 7 mps 763 mmHg 40%
    13:00 +14°C° 0 mm 5 mps 763 mmHg 37%
    14:00 +14°C° 0 mm 4 mps 762 mmHg 34%
    15:00 +16°C° 0 mm 2 mps 762 mmHg 31%
    16:00 +14°C° 0 mm 3 mps 762 mmHg 33%
    17:00 +13°C° 0 mm 3 mps 762 mmHg 36%
    18:00 +12°C° 0 mm 3 mps 763 mmHg 39%
    19:00 +10°C° 0 mm 5 mps 763 mmHg 44%
    20:00 +9°C° 0 mm 7 mps 763 mmHg 49%
    21:00 +7°C° 0 mm 9 mps 764 mmHg 54%
    22:00 +6°C° 0 mm 9 mps 764 mmHg 55%
    23:00 +6°C° 0 mm 9 mps 764 mmHg 57%
    Show more